sat.trackr.live / text

‹ back to catalog

STARLINK-5917

NORAD 55942 · 2023-037AE

PAYLOAD ACTIVE UNKNOWN

§ Identity

Operator
Country
US
Launch date
2023-03-17
Launch site
AFWTR
Launch vehicle
Mass (kg)
RCS (m²)

Purposes: comms

External: N2YO · Heavens-Above · Gunter

§ Orbital elements

Epoch: 2026-09-20T22:00:03.000096Z

Period
95.86 min
Inclination
70.0011°
Eccentricity
0.0002811
Mean motion
15.02142635 rev/d
Perigee alt
558.3 km
Apogee alt
562.2 km
Semi-major
6,938.4 km
B*
2.4849e-3
RAAN
152.0452°
Arg perigee
289.8883°
Mean anomaly
217.4283°
Rev number
576

§ Raw data

STARLINK-59171 55942U 23037AE  26263.91670139  .00032809  00000+0  24849-2 0  99952 55942  70.0011 152.0452 0002811 289.8883 217.4283 15.02142635  5767

JSON: /api/v1/satellites/55942 · /tle

For live sub-satellite position, see the globe view (requires WebGL).

§ Visibility from observer

Set your observer location to see the next 7 days of passes ≥ 10°. The values pass through the URL so the page stays shareable.

No JS? Fill the form by hand. The geolocation button needs JavaScript.